Hourly Data Report for February 22, 2003

SHERBROOKE A
QUEBEC

45°26'00.000" N
71°41'00.000" W
241.40 m
7028124
71610
YSC

Download Data

Hourly Data (February 2003)
Hourly Data Report for February 22, 2003
TIME
LST
Temp Definition
°C
Dew Point Definition
°C
Rel Hum Definition
%
Precip. Amount Definition
mm

Wind Dir Definition
10's deg

Wind Spd Definition
km/h
Visibility Definition
km
Stn Press Definition
kPa
Hmdx Definition


Wind Chill Definition


Weather Definition


00:00 -1.9 -7.0 68   8 6 15.0 98.48   -4  
01:00 -2.0 -7.0 69   34 4 15.0 98.49   -3  
02:00 -2.1 -7.2 68   8 6 15.0 98.43   -4  
03:00 -2.7 -7.4 70   2 4 15.0 98.38   -4  
04:00 -2.4 -7.2 70   7 4 15.0 98.42   -4  
05:00 -3.4 -7.8 72   4 4 15.0 98.41   -5  
06:00 -3.9 -8.3 71   4 7 15.0 98.46   -7  
07:00
08:00 -3.6 -8.5 69   8 7 24.1 98.43   -7 Mainly Clear
09:00 -2.0 -7.7 65   7 11 24.1 98.34   -6 Mainly Clear
10:00 1.3 -6.7 55   5 7 24.1 98.29     Mainly Clear
11:00 3.9 -5.8 49   3 7 24.1 98.19     Mostly Cloudy
12:00 4.6 -5.7 47   4 11 24.1 98.16     Cloudy
13:00 4.8 -6.0 45   5 15 24.1 98.07     Cloudy
14:00 4.1 -6.7 45   3 11 24.1 97.98     Cloudy
15:00 3.3 -6.9 47   5 17 24.1 97.95     Cloudy
16:00 3.6 -5.7 51   7 9 24.1 97.88     Cloudy
17:00 4.3 -4.1 54   14 15 24.1 97.87     Cloudy
18:00 1.9 -2.3 74   9 15 11.3 97.83     Rain
19:00 0.4 -2.3 82   7 13 1.9 97.80     Snow
20:00 0.1 -2.5 83   6 13 0.8 97.72     Snow
21:00 -0.7 -3.3 83   5 11 1.9 97.60   -4 Snow
22:00 -1.3 -4.0 82   6 17 1.1 97.47   -6 Snow
23:00 -1.4 -4.1 82   5 13 0.6 97.38   -6 Snow

Notes on Data Quality.

Legend

  • E = Estimated
  • M = Missing
  • NA = Not Available*
  • [empty] = Indicates an unobserved value
Date modified: